Regional Weather Roundup
Issued by NWS

Home | Current Version | Previous Version | Graphics & Text | Print | Product List | Glossary On
Versions: 1 2 3 4 5 6 7 8 9 10 11 12 13 14 15 16 17 18 19 20 21 22 23 24 25 26 27
000
ASUS45 KSLC 191710
RWRUT

UTAH REGIONAL WEATHER ROUNDUP
NATIONAL WEATHER SERVICE SALT LAKE CITY UT
1100 AM MDT SAT APR 19 2014

UTZ001>011-023>025-191800-

NORTHERN UTAH

CITY           SKY/WX    TMP DP  RH WIND       PRES   REMARKS
HILL AFB       PTSUNNY   61  37  41 VRB3      30.04R
LOGAN          MOSUNNY   50  38  63 N6        30.05S
OGDEN          PTSUNNY   58  41  53 VRB3      30.02S
PROVO AIRPORT  MOSUNNY   61  41  48 E5        30.05R
SALT LAKE CITY PTSUNNY   59  41  51 VRB3      30.03R
VERNAL         MOSUNNY   62  36  37 S7        30.05S
WENDOVER       SUNNY     61  30  31 SE6       30.03S
HEBER CITY     SUNNY     55  34  44 CALM      30.05S
WEST JORDAN    PTSUNNY   59  45  58 S5        30.04R

$$

UTZ012>022-026-027-191800-

SOUTHERN UTAH

CITY           SKY/WX    TMP DP  RH WIND       PRES   REMARKS
BRYCE CANYON   MOSUNNY   53  29  39 CALM      30.16S
CEDAR CITY     SUNNY     60  29  30 VRB3      30.08S
MILFORD        SUNNY     64  34  32 S16       30.05S
MOAB/CYNLANDS  CLOUDY    58  47  66 E10       30.08S
PRICE          MOSUNNY   60  38  43 E9        30.10S
ST GEORGE      SUNNY     70  37  30 SE5       30.03S
KANAB            N/A     61  36  39 CALM      30.11F

$$

REGIONAL REPORTS     COLORADO/ARIZONA

CITY           SKY/WX    TMP DP  RH WIND       PRES   REMARKS
CRAIG, CO      CLOUDY    55  36  48 S10       30.11R
GRAND JUNCTION LGT RAIN  52  48  86 W6        30.12S
RIFLE          CLOUDY    58  41  53 W21       30.10S
MONTROSE       CLOUDY    55  42  61 N9        30.15R
CORTEZ         MOSUNNY   58  43  57 CALM      30.14F
PAGE, AZ       PTSUNNY   63  39  41 W5        30.07R
GRAND CANYON   MOSUNNY   56  35  45 S6        30.13R
KINGMAN        MOSUNNY   69  39  33 VRB3      30.02R
FLAGSTAFF      MOSUNNY   53  33  46 SW13      30.16R

$$

REGIONAL REPORTS    NEVADA/IDAHO/WYOMING

CITY           SKY/WX    TMP DP  RH WIND       PRES   REMARKS
LAS VEGAS, NV  MOSUNNY   73  39  29 S3        29.95R
ELY            SUNNY     60  30  32 VRB3      30.08S
ELKO           SUNNY     56  28  34 N3        30.04S
POCATELLO, ID  SUNNY     55  17  22 E3        30.05S
BURLEY         SUNNY     56  29  35 VRB5      30.00S
EVANSTON, WY   CLOUDY    51  30  44 W8        30.10R
ROCK SPRINGS   MOSUNNY   54  22  28 W7        30.09S

$$



USA.gov is the U.S. government's official web portal to all federal, state and local government web resources and services.